SCP
0 0 0 1 1 2 2 2 2 1 1 2 2 2 1 1 2 2 1 1 0 1 1 1 1 1 2 3 3 3 2 2 1 1 1 0 0 0 0 0 0 0 0
0 0 0 1 1 1 2 2 2 2 1 2 2 2 1 1 2 2 1 1 0 1 1 1 1 1 2 3 3 3 2 2 1 1 1 0 0 0 0 0 0 0 0
0 0 0 1 1 1 2 3 2 2 2 2 2 1 1 1 2 1 1 1 0 1 2 1 1 1 2 3 3 3 2 1 1 1 1 0 0 0 0 0 0 0 0
0 0 0 0 1 1 3 3 3 2 2 2 1 1 1 1 1 1 1 1 0 1 2 1 1 0 1 3 3 3 2 1 1 1 0 0 0 0 0 0 0 0 0
0 0 0 0 1 2 4 4 3 2 2 2 1 1 1 1 1 1 1 1 0 1 1 1 0 0 1 3 3 3 3 1 1 0 0 0 0 0 0 0 0 0 0
0 0 0 0 1 3 5 4 3 2 1 1 1 1 1 1 1 1 1 1 1 1 1 1 0 0 1 3 4 3 3 1 0 0 0 0 0 0 0 0 0 0 0
0 0 0 0 1 4 5 4 2 2 1 1 1 1 1 1 1 0 0 0 0 1 1 1 1 0 1 2 4 4 2 1 0 0 0 0 0 0 0 0 0 0 0
0 0 0 0 1 2 3 3 2 2 1 1 1 1 1 1 1 0 0 1 0 0 1 1 1 0 1 2 4 4 2 1 0 0 0 0 0 0 0 0 0 0 0
0 0 0 0 0 1 2 2 2 1 1 1 1 1 1 1 1 0 0 1 0 0 0 1 0 0 1 3 4 3 2 1 0 0 0 0 0 0 0 0 0 0 0
0 0 0 0 0 0 1 1 1 1 1 1 1 1 0 0 0 0 1 1 0 0 0 0 0 1 2 3 3 2 1 0 0 0 0 0 0 1 0 0 0 0 0
0 0 0 0 0 0 1 0 0 0 0 1 0 0 0 0 0 0 1 0 0 0 0 0 0 1 2 3 2 1 0 0 0 0 0 0 1 1 0 0 0 0 0
0 0 0 0 0 0 1 0 0 0 0 0 0 0 0 0 0 0 1 0 0 0 0 0 1 2 2 2 1 0 0 0 0 0 0 0 0 1 1 0 0 0 0
0 0 0 0 0 0 0 0 0 0 0 0 0 0 0 0 0 0 0 0 0 0 0 1 2 2 2 1 0 0 0 0 0 0 0 0 0 1 1 0 0 0 0
0 0 0 0 0 0 0 0 0 0 0 0 0 0 0 0 0 0 0 0 0 0 1 2 2 2 1 0 0 0 0 0 0 0 0 0 0 0 0 0 0 0 0
0 0 0 0 0 0 0 0 0 0 0 0 0 0 0 0 0 0 0 0 0 1 2 2 2 1 0 0 0 0 0 0 0 0 0 0 0 0 0 0 0 0 0
0 0 0 0 0 0 0 0 0 0 0 0 0 0 0 0 0 0 0 0 1 1 1 1 1 0 0 0 0 0 0 0 0 0 0 0 0 0 0 0 0 0 0
0 0 0 0 0 0 0 0 0 0 0 0 0 0 0 0 0 0 0 0 1 1 1 0 0 0 0 0 0 0 0 0 0 0 0 0 0 0 0 0 0 0 0
0 0 0 0 0 0 0 0 0 0 0 0 0 0 0 0 0 0 0 0 1 0 0 0 0 0 0 0 0 0 0 0 0 0 0 0 0 0 0 0 0 0 0
0 0 0 0 0 0 0 0 0 0 0 0 0 0 0 0 0 0 0 0 0 0 0 0 0 0 0 0 0 0 0 0 0 0 0 0 0 0 0 0 0 0 0
0 0 0 0 0 0 0 0 0 0 0 0 0 0 0 0 0 0 0 0 0 0 0 0 0 0 0 0 0 0 0 0 0 0 0 0 0 0 0 0 0 0 0
0 0 0 0 0 0 0 0 0 0 0 0 0 0 0 0 0 0 0 0 0 0 0 0 0 0 0 0 0 0 0 0 0 0 0 0 0 0 0 0 0 0 0
0 0 0 0 0 0 0 0 0 0 0 0 0 0 0 0 0 0 0 0 0 0 0 0 0 0 0 0 0 0 0 0 0 0 0 0 0 0 0 0 0 0 0
0 0 0 0 0 0 0 0 0 0 0 0 0 0 0 0 0 0 0 0 0 0 0 0 0 0 0 0 0 0 0 0 0 0 0 0 0 0 0 0 0 0 0
0 0 0 0 0 0 0 0 0 0 0 0 0 0 0 0 0 0 0 0 0 0 0 0 0 0 0 0 0 0 0 0 0 0 0 0 0 0 0 0 0 0 0
0 0 0 0 0 0 0 0 0 0 0 0 0 0 0 0 0 0 0 0 0 0 0 0 0 0 0 0 0 0 0 0 0 0 0 0 0 0 0 0 0 0 0
0 0 0 0 0 0 0 0 0 0 0 0 0 0 0 0 0 0 0 0 0 0 0 0 0 0 0 0 0 0 0 0 0 0 0 0 0 0 0 0 0 0 0
Wind_Speed
3 2 2 3 3 3 3 4 3 3 3 3 3 3 4 3 4 4 6 5 5 6 5 4 5 5 5 5 5 4 5 4 3 2 2 3 4 5 5 5 5 6 6
2 2 2 2 3 3 3 4 3 3 3 4 4 3 4 4 4 4 5 5 5 6 5 6 5 5 5 5 6 5 4 3 4 3 2 2 3 4 6 5 6 6 5
2 2 2 3 3 3 3 4 4 4 4 4 3 3 2 3 4 4 5 5 6 6 6 6 6 6 6 6 6 6 6 5 5 4 4 3 4 2 3 5 5 6 5
3 2 2 3 3 4 3 3 3 4 4 4 4 6 5 5 5 4 4 5 6 6 6 6 6 7 6 6 7 7 5 6 5 5 5 4 3 3 2 3 4 5 6
2 2 2 2 3 3 2 2 3 4 4 4 5 6 5 5 4 4 5 5 6 7 7 7 7 7 6 7 7 6 6 6 6 5 4 4 3 3 3 4 4 4 5
2 2 2 2 2 2 1 2 4 4 4 4 5 6 6 6 5 6 5 5 5 5 7 7 6 6 6 7 7 7 8 6 6 5 5 5 4 5 4 5 5 5 4
2 2 3 3 2 2 3 3 4 4 4 4 5 5 6 6 7 7 6 5 5 4 7 7 6 6 6 7 7 7 7 7 7 7 6 6 6 4 4 4 4 4 3
2 2 3 3 2 3 3 3 4 5 4 4 5 5 6 4 5 6 6 6 5 5 6 7 6 7 7 7 7 6 7 7 7 8 7 6 6 5 5 4 4 4 4
3 3 3 3 3 3 4 4 5 5 5 5 5 5 6 5 5 6 6 5 5 5 6 6 7 7 8 8 7 7 7 7 7 7 8 6 6 5 5 5 5 5 5
2 2 2 3 3 3 3 4 5 5 5 5 5 4 5 5 6 5 5 6 5 5 6 7 7 7 8 8 8 7 7 8 8 6 8 8 6 5 5 5 5 5 5
4 3 3 3 4 4 4 4 4 4 4 4 4 4 4 5 5 5 5 5 5 5 6 7 7 8 9 8 8 8 8 9 9 8 9 9 7 6 5 5 5 5 4
4 4 3 4 4 4 4 4 3 3 3 3 3 3 4 4 3 4 4 4 4 5 6 6 6 7 8 8 8 8 9 9 9 9 9 9 7 8 6 5 6 5 5
4 4 4 4 5 5 4 4 3 3 2 3 3 3 3 3 4 3 4 3 4 4 5 5 6 7 7 8 8 8 8 8 8 8 9 9 8 9 6 7 6 5 5
5 5 4 4 4 4 4 3 3 2 3 3 3 3 4 4 4 3 3 3 4 4 5 5 6 6 7 7 7 7 7 7 6 6 7 8 9 9 8 7 7 6 5
6 5 5 5 5 5 4 4 3 3 3 3 3 3 4 4 3 3 3 3 3 4 4 5 5 5 5 5 5 5 6 5 5 5 6 7 8 9 8 6 6 6 5
6 5 6 6 6 5 4 4 4 4 3 3 3 3 3 3 4 4 4 4 4 4 4 4 4 4 4 5 6 5 5 5 5 5 4 5 6 8 9 10 9 9 7
6 6 6 6 5 5 4 4 4 4 4 4 4 4 4 4 4 4 5 5 4 4 4 5 5 5 5 6 7 6 5 5 4 4 3 3 4 6 5 6 7 8 9
6 6 6 6 5 4 4 4 4 3 4 4 4 4 4 5 5 5 5 6 4 4 4 5 5 4 5 5 6 7 5 4 4 4 4 3 4 5 5 5 4 4 4
5 5 5 5 5 5 4 4 4 3 4 4 4 5 5 5 5 5 5 5 4 4 3 3 4 3 3 3 3 3 2 2 2 3 3 3 4 6 6 5 5 4 3
4 4 5 5 5 5 4 4 4 4 4 4 4 4 5 5 5 5 5 4 4 3 3 3 2 1 1 2 2 1 2 2 1 1 2 4 3 5 6 5 5 5 4
5 5 5 4 4 5 4 4 4 5 5 4 4 4 4 5 5 4 4 3 3 3 2 2 1 1 1 0 0 1 1 2 1 1 2 2 3 4 6 5 5 5 5
6 5 4 4 4 4 4 5 5 5 4 4 4 4 4 4 4 4 3 2 2 2 2 1 2 1 1 1 1 1 0 0 1 1 1 2 3 3 4 4 6 8 6
6 5 5 5 4 4 4 5 5 4 4 4 4 4 4 4 4 2 2 1 1 1 1 1 1 1 1 1 1 1 1 1 0 0 1 1 3 3 4 6 7 6 4
6 5 5 5 5 4 5 5 5 4 3 4 4 4 3 4 3 1 0 0 0 0 1 1 1 1 1 0 1 1 1 1 1 1 2 2 3 3 4 5 4 3 3
5 5 5 5 5 4 4 5 4 4 3 4 4 3 3 2 2 1 1 1 0 1 0 0 0 0 1 1 1 1 1 1 1 1 1 2 2 2 3 3 3 3 4
5 5 5 5 5 5 5 4 4 3 3 3 3 2 2 2 1 1 2 3 2 3 2 2 2 2 2 2 1 1 1 3 3 2 2 2 2 2 3 3 3 3 3
Wind_Direction
242 209 220 242 253 259 261 258 252 253 252 236 229 230 239 234 226 219 220 213 216 211 205 208 206 205 204 208 209 209 202 208 193 204 241 252 236 227 221 214 213 215 211
259 242 239 244 250 261 260 256 255 258 254 241 238 226 234 233 230 222 220 214 210 211 213 205 207 210 207 208 212 208 204 206 192 185 194 236 252 242 228 214 213 216 213
246 261 267 263 261 267 257 258 252 253 249 249 255 255 244 238 231 224 219 216 212 214 211 212 213 212 208 208 210 209 207 203 205 195 192 196 216 239 233 224 218 215 215
237 252 273 280 278 277 262 248 257 250 245 240 240 239 236 236 233 225 218 217 215 218 212 213 217 214 212 213 215 213 208 199 207 213 220 224 204 204 233 241 223 217 221
216 258 280 284 290 280 253 240 259 256 246 243 239 239 242 243 238 232 222 220 218 219 216 215 219 215 214 216 218 211 210 208 210 213 214 230 234 227 212 238 233 235 227
202 256 272 280 300 308 281 258 262 260 255 244 241 242 245 245 241 239 228 222 220 219 216 218 220 220 216 213 215 213 212 214 216 219 214 209 210 211 212 222 223 233 235
221 254 279 292 309 298 280 267 267 274 269 251 241 243 247 246 242 241 230 226 222 222 217 217 217 222 220 215 214 213 214 213 217 223 222 217 221 216 215 217 226 239 250
255 261 274 279 288 287 283 274 270 270 270 262 252 242 240 243 245 242 236 228 225 226 220 216 221 226 222 222 216 216 219 217 218 228 223 222 221 220 217 214 213 232 251
259 266 278 289 288 286 287 283 277 273 266 262 260 248 240 241 249 249 241 236 226 229 227 225 227 230 225 224 220 221 219 218 219 222 222 224 222 218 220 215 205 208 237
285 268 280 303 303 287 287 290 284 280 271 262 260 261 256 252 248 247 246 242 228 232 234 232 231 232 229 228 225 223 219 220 223 222 221 224 222 217 218 217 217 210 219
312 300 296 300 297 294 288 284 288 290 288 281 271 263 263 257 250 247 248 244 237 230 233 233 232 236 232 227 224 226 221 221 224 223 221 223 218 213 216 215 216 217 210
322 321 318 314 312 309 304 292 296 298 293 290 290 274 265 267 264 262 262 255 253 240 238 237 236 239 238 229 224 227 228 223 224 222 219 222 219 216 214 212 216 218 213
327 325 325 320 315 313 313 309 307 312 312 310 306 298 283 275 268 269 276 271 269 262 251 247 243 240 239 234 230 227 228 227 226 222 219 219 217 220 216 212 213 215 215
330 331 330 325 322 323 318 318 321 317 316 313 303 302 295 283 275 274 278 275 277 275 265 259 252 245 240 239 236 230 228 229 227 225 224 220 218 219 214 213 211 205 200
336 332 332 332 330 327 325 333 330 323 323 321 315 309 305 307 304 289 279 283 278 283 278 265 261 258 246 240 235 225 226 223 223 224 225 223 221 216 212 208 201 194 193
330 332 335 328 324 323 324 331 328 328 327 319 311 310 311 312 307 301 288 288 286 286 283 270 257 255 255 257 251 239 228 221 217 222 227 221 218 212 210 209 199 192 189
329 333 329 321 320 322 325 325 317 322 323 315 312 315 316 310 305 306 300 284 279 281 278 277 265 252 248 258 259 246 237 219 214 219 220 223 216 198 194 195 195 198 194
337 336 331 328 324 323 322 315 316 322 317 314 312 315 316 310 309 306 300 291 280 278 273 268 264 252 242 252 254 244 228 216 212 214 209 215 210 193 182 180 182 187 186
328 323 321 320 322 323 323 322 318 316 314 311 314 317 312 307 306 301 297 298 300 293 281 274 268 258 244 237 239 237 193 187 206 210 204 208 203 180 173 172 175 177 165
326 321 321 320 320 317 320 320 309 310 305 304 306 308 308 305 301 297 298 303 306 299 298 289 266 222 202 231 221 228 170 174 197 214 212 199 190 178 172 170 170 175 166
320 321 320 318 314 318 314 305 304 301 300 304 308 308 307 305 299 296 295 303 310 310 321 329 359 104 121 122 176 211 149 159 185 229 214 180 165 184 185 179 171 167 151
319 317 312 308 310 316 313 303 297 294 300 302 300 300 300 302 302 294 297 307 321 334 352 14 16 50 74 65 55 48 23 138 190 211 186 165 171 178 179 170 150 145 138
311 310 305 300 304 309 309 303 300 301 307 305 301 298 299 298 297 285 290 314 353 8 360 18 16 3 42 56 27 26 17 360 1 158 157 168 159 144 147 143 140 137 134
304 306 307 304 301 301 304 302 305 308 311 306 302 300 300 304 311 316 315 10 20 37 1 356 352 352 359 26 43 36 83 82 81 89 100 105 115 115 124 130 129 124 131
305 306 303 303 304 306 309 312 314 314 314 308 304 308 310 313 331 351 17 14 327 235 227 274 297 299 307 289 307 306 152 141 146 103 92 105 104 98 108 108 103 104 108
306 308 306 305 307 308 302 301 305 304 300 302 308 312 315 328 339 6 14 13 7 10 6 342 319 315 280 281 321 353 88 109 123 105 108 103 99 105 118 118 111 105 107